sat.trackr.live / text

‹ back to catalog

STARLINK-30150

NORAD 57621 · 2023-119V

PAYLOAD ACTIVE UNKNOWN

§ Identity

Operator
Country
US
Launch date
2023-08-11
Launch site
AFETR
Launch vehicle
Mass (kg)
RCS (m²)

Purposes: comms

External: N2YO · Heavens-Above · Gunter

§ Orbital elements

Epoch: 2026-05-25T00:44:38.626368Z

Period
94.27 min
Inclination
43.0047°
Eccentricity
0.0001285
Mean motion
15.27588494 rev/d
Perigee alt
482.1 km
Apogee alt
483.9 km
Semi-major
6,861.2 km
B*
-4.7355e-6
RAAN
10.2897°
Arg perigee
271.4023°
Mean anomaly
88.6681°
Rev number
15,476

§ Raw data

STARLINK-301501 57621U 23119V   26145.03100262 -.00000393  00000+0 -47355-5 0  99942 57621  43.0047  10.2897 0001285 271.4023  88.6681 15.27588494154766

JSON: /api/v1/satellites/57621 · /tle

For live sub-satellite position, see the globe view (requires WebGL).

§ Visibility from observer

Set your observer location to see the next 7 days of passes ≥ 10°. The values pass through the URL so the page stays shareable.

No JS? Fill the form by hand. The geolocation button needs JavaScript.